TimeMDT,TemperatureF,Dew PointF,Humidity,Sea Level PressureIn,VisibilityMPH,Wind Direction,Wind SpeedMPH,Gust SpeedMPH,PrecipitationIn,Events,Conditions,WindDirDegrees,DateUTC
12:53 AM,72.0,45.0,38,29.97,10.0,South,13.8,-,N/A,,Clear,190,2013-09-06 06:53:00
1:53 AM,72.0,44.1,37,29.96,10.0,SSW,12.7,-,N/A,,Clear,200,2013-09-06 07:53:00
2:53 AM,72.0,44.1,37,29.95,10.0,SSW,15.0,-,N/A,,Clear,200,2013-09-06 08:53:00
3:53 AM,73.0,41.0,31,29.94,10.0,SSW,13.8,-,N/A,,Clear,210,2013-09-06 09:53:00
4:53 AM,71.1,41.0,34,29.94,10.0,SW,16.1,21.9,N/A,,Clear,220,2013-09-06 10:53:00
5:53 AM,71.1,42.1,35,29.94,10.0,SSW,13.8,-,N/A,,Clear,210,2013-09-06 11:53:00
6:53 AM,71.1,43.0,36,29.96,10.0,SW,13.8,-,N/A,,Clear,220,2013-09-06 12:53:00
7:53 AM,75.9,44.1,32,29.97,10.0,SW,11.5,-,N/A,,Clear,220,2013-09-06 13:53:00
8:53 AM,81.0,46.0,29,29.97,10.0,SSW,8.1,-,N/A,,Clear,210,2013-09-06 14:53:00
9:53 AM,88.0,46.9,24,29.97,10.0,SSW,10.4,-,N/A,,Clear,200,2013-09-06 15:53:00
10:53 AM,93.9,44.1,18,29.96,10.0,SW,9.2,-,N/A,,Clear,220,2013-09-06 16:53:00
11:53 AM,97.0,42.1,15,29.94,10.0,South,15.0,-,N/A,,Clear,180,2013-09-06 17:53:00
12:53 PM,99.0,42.1,14,29.92,10.0,South,12.7,20.7,N/A,,Clear,180,2013-09-06 18:53:00
1:53 PM,100.0,42.1,14,29.91,10.0,South,15.0,-,N/A,,Clear,180,2013-09-06 19:53:00
2:53 PM,100.0,42.1,14,29.89,10.0,South,15.0,20.7,N/A,,Clear,190,2013-09-06 20:53:00
3:53 PM,99.0,39.9,13,29.87,10.0,South,10.4,21.9,N/A,,Clear,190,2013-09-06 21:53:00
4:53 PM,98.1,41.0,14,29.86,10.0,South,16.1,-,N/A,,Clear,170,2013-09-06 22:53:00
5:53 PM,95.0,39.9,15,29.86,10.0,South,17.3,-,N/A,,Clear,170,2013-09-06 23:53:00
6:53 PM,86.0,45.0,24,29.87,10.0,South,9.2,-,N/A,,Clear,180,2013-09-07 00:53:00
7:53 PM,78.1,45.0,31,29.89,10.0,South,10.4,-,N/A,,Clear,180,2013-09-07 01:53:00
8:53 PM,75.0,44.1,33,29.90,10.0,South,10.4,-,N/A,,Clear,180,2013-09-07 02:53:00
9:53 PM,77.0,44.1,31,29.89,10.0,South,11.5,-,N/A,,Clear,190,2013-09-07 03:53:00
10:53 PM,77.0,44.1,31,29.89,10.0,South,11.5,-,N/A,,Clear,190,2013-09-07 04:53:00
11:53 PM,75.0,45.0,34,29.89,10.0,SSW,10.4,-,N/A,,Clear,200,2013-09-07 05:53:00